GW1838 Weather Reports


time (UTC)temp
C
wind
direction
speed
KPH
gust
KPH
rain 1hr
cm
rain 24hr
cm
rain mn
cm
humidity
%
barometer
mb
20260508012804 11 186 9.7 19.3 0.00 0.36 0.36 88 1008.6
20260508011804 10 191 9.7 19.3 0.00 0.36 0.36 88 1008.6
20260508010804 10 196 9.7 19.3 0.00 0.36 0.36 88 1008.4
20260508004304 11 190 12.9 20.9 0.00 0.36 0.36 88 1008.5
20260508002306 11 201 9.7 16.1 0.00 0.36 0.36 81 1008.1
20260508000804 11 188 8.0 19.3 0.00 0.36 0.36 76 1008.2
20260508000305 11 200 11.3 19.3 0.00 0.36 0.36 74 1008.2
20260507235804 11 195 9.7 14.5 0.00 0.36 0.36 76 1008.4
20260507235307 11 200 9.7 16.1 0.00 0.36 0.36 77 1008.4
20260507234804 11 197 9.7 16.1 0.00 0.36 0.36 79 1008.4
20260507233804 11 188 9.7 19.3 0.00 0.36 0.36 80 1008.2
20260507233304 11 185 9.7 16.1 0.00 0.36 0.36 81 1008.0
20260507232804 11 195 8.0 14.5 0.00 0.36 0.36 81 1007.8
20260507232306 11 190 9.7 14.5 0.00 0.36 0.36 81 1007.9
20260507231804 11 190 8.0 14.5 0.00 0.36 0.36 80 1007.9
20260507225306 12 194 8.0 20.9 0.00 0.36 0.36 80 1007.7
20260507224804 12 200 11.3 19.3 0.00 0.36 0.36 81 1007.7
20260507223804 12 180 8.0 16.1 0.00 0.36 0.36 81 1007.9
20260507222804 12 187 14.5 20.9 0.00 0.36 0.36 81 1007.8
20260507221804 12 197 11.3 24.1 0.00 0.36 0.36 80 1008.4
20260507221304 12 188 12.9 20.9 0.00 0.36 0.36 80 1008.2
20260507220304 12 182 8.0 19.3 0.00 0.36 0.36 81 1008.1
20260507215804 12 185 8.0 16.1 0.00 0.36 0.36 82 1008.0
20260507215307 12 177 9.7 11.3 0.00 0.36 0.36 83 1007.9
20260507214807 12 181 8.0 14.5 0.00 0.36 0.36 83 1007.8
20260507213307 12 188 9.7 16.1 0.00 0.36 0.36 83 1008.1
20260507211307 12 189 9.7 19.3 0.00 0.36 0.36 83 1007.8
20260507210307 13 180 8.0 12.9 0.00 0.36 0.36 82 1007.5
20260507204807 12 179 8.0 19.3 0.00 0.36 0.36 83 1007.5
20260507204307 12 183 8.0 19.3 0.00 0.36 0.36 83 1007.7
20260507203807 12 180 8.0 16.1 0.00 0.36 0.36 83 1007.6
20260507202807 12 161 8.0 16.1 0.00 0.36 0.36 84 1007.5
20260507201807 12 151 9.7 16.1 0.00 0.36 0.36 84 1007.3
20260507201307 12 147 9.7 16.1 0.00 0.36 0.36 83 1007.4
20260507200807 12 156 9.7 14.5 0.00 0.36 0.36 84 1007.6
20260507200307 12 153 8.0 14.5 0.00 0.36 0.36 84 1007.4
20260507195307 11 151 9.7 14.5 0.00 0.36 0.36 83 1007.4
20260507194307 12 155 8.0 12.9 0.00 0.36 0.36 82 1007.7
20260507193807 12 161 8.0 14.5 0.00 0.36 0.36 81 1007.7
20260507192807 12 157 8.0 14.5 0.00 0.36 0.36 80 1008.2
20260507192307 12 179 6.4 14.5 0.00 0.36 0.36 80 1008.3
20260507190807 12 159 9.7 14.5 0.00 0.36 0.36 78 1008.1
20260507190307 13 156 9.7 14.5 0.00 0.36 0.36 76 1008.0
20260507185307 15 127 1.6 8.0 0.00 0.36 0.36 76 1007.8
20260507184807 14 156 3.2 8.0 0.00 0.36 0.36 78 1007.9
20260507183306 13 149 4.8 9.7 0.00 0.36 0.36 77 1008.7
20260507182807 13 142 9.7 12.9 0.00 0.36 0.36 75 1008.6
20260507182307 15 148 8.0 9.7 0.00 0.36 0.36 71 1008.6
20260507181807 15 148 3.2 4.8 0.00 0.36 0.36 70 1008.5
20260507180807 16 117 1.6 4.8 0.00 0.36 0.36 67 1008.7
20260507175807 16 108 1.6 8.0 0.00 0.36 0.36 67 1008.6
20260507174806 16 160 3.2 4.8 0.00 0.36 0.36 67 1008.5
20260507174307 16 127 3.2 4.8 0.00 0.36 0.36 65 1008.4
20260507173807 16 102 3.2 4.8 0.00 0.36 0.36 65 1008.5
20260507170309 15 141 1.6 3.2 0.00 0.36 0.36 72 1009.2
20260507165807 15 133 3.2 4.8 0.00 0.36 0.36 72 1009.4
20260507164807 15 113 3.2 4.8 0.00 0.36 0.36 72 1009.5
20260507161806 13 20 4.8 11.3 0.00 0.36 0.36 65 1009.8
20260507160806 13 1 4.8 11.3 0.00 0.36 0.36 67 1010.0
20260507160307 13 334 4.8 9.7 0.00 0.36 0.36 68 1010.0
20260507155806 13 336 4.8 9.7 0.00 0.36 0.36 69 1010.0
20260507154307 13 358 6.4 11.3 0.00 0.36 0.36 71 1010.2
20260507153807 12 346 11.3 19.3 0.00 0.36 0.36 71 1010.1
20260507152307 12 354 9.7 16.1 0.00 0.36 0.36 74 1010.2
20260507151807 12 356 8.0 14.5 0.00 0.36 0.36 76 1010.5
20260507151306 12 334 8.0 12.9 0.00 0.36 0.36 76 1010.6
20260507150807 12 330 8.0 12.9 0.00 0.36 0.36 77 1010.5
20260507150306 12 307 4.8 11.3 0.00 0.36 0.36 77 1010.7
20260507145307 12 329 4.8 14.5 0.00 0.36 0.36 78 1010.6
20260507142807 12 3 11.3 20.9 0.00 0.36 0.36 81 1010.7
20260507142307 12 329 8.0 16.1 0.00 0.36 0.36 81 1010.6
20260507140806 11 338 9.7 19.3 0.00 0.36 0.36 82 1010.5
20260507140306 11 0 11.3 19.3 0.00 0.36 0.36 82 1010.6
20260507134806 11 344 6.4 16.1 0.00 0.36 0.36 83 1010.5
20260507134307 11 339 8.0 19.3 0.00 0.36 0.36 84 1010.6
20260507133307 11 336 8.0 16.1 0.00 0.36 0.36 84 1010.6
20260507132807 11 351 9.7 19.3 0.00 0.36 0.36 84 1010.6
20260507132307 11 322 8.0 19.3 0.00 0.36 0.36 84 1010.6
20260507131306 11 355 12.9 22.5 0.00 0.36 0.36 84 1010.4
20260507125806 11 350 9.7 20.9 0.00 0.36 0.36 85 1010.5
20260507124306 11 339 9.7 19.3 0.00 0.36 0.36 85 1010.6
20260507123806 11 339 9.7 19.3 0.00 0.36 0.36 85 1010.3
20260507122307 11 340 11.3 19.3 0.00 0.36 0.36 85 1010.4
20260507121306 11 0 6.4 12.9 0.00 0.36 0.36 86 1010.4
20260507115806 11 323 6.4 14.5 0.00 0.36 0.36 85 1010.7
20260507114308 11 2 9.7 16.1 0.00 0.36 0.36 85 1010.3
20260507113806 11 3 4.8 11.3 0.00 0.36 0.36 86 1010.2
20260507112308 11 355 8.0 14.5 0.00 0.36 0.36 86 1010.0
20260507110806 11 333 11.3 20.9 0.00 0.36 0.36 87 1010.0
20260507110307 11 331 9.7 24.1 0.00 0.36 0.36 87 1009.9
20260507105807 11 355 14.5 24.1 0.00 0.36 0.36 87 1009.9
20260507105307 11 351 9.7 22.5 0.00 0.36 0.36 88 1009.9
20260507104807 11 330 8.0 16.1 0.00 0.36 0.36 88 1009.9
20260507104308 11 4 9.7 19.3 0.00 0.36 0.36 87 1009.9
20260507102806 11 315 11.3 19.3 0.00 0.36 0.36 88 1009.7
20260507102307 11 343 9.7 19.3 0.00 0.36 0.36 88 1009.5
20260507101806 11 337 9.7 19.3 0.00 0.36 0.36 88 1009.3
20260507100307 11 341 8.0 19.3 0.00 0.36 0.36 89 1009.3
20260507095306 11 350 9.7 20.9 0.00 0.36 0.36 89 1009.0
20260507094306 11 337 8.0 19.3 0.00 0.36 0.36 89 1008.9
20260507093806 11 340 9.7 19.3 0.00 0.36 0.36 89 1009.0
20260507093306 11 350 9.7 19.3 0.00 0.36 0.36 89 1008.8
20260507092807 11 336 9.7 19.3 0.00 0.36 0.36 89 1008.8
20260507091806 11 350 14.5 24.1 0.00 0.36 0.36 89 1008.7
20260507090307 11 343 11.3 25.7 0.00 0.36 0.36 89 1008.8
20260507084807 11 343 14.5 25.7 0.00 0.36 0.36 90 1008.3
20260507084306 11 341 22.5 33.8 0.00 0.36 0.36 90 1008.2
20260507083806 11 355 17.7 27.4 0.00 0.36 0.36 90 1008.5
20260507083306 11 347 17.7 25.7 0.00 0.36 0.36 90 1008.7
20260507081306 11 357 17.7 29.0 0.18 0.36 0.36 90 1008.3
20260507080806 12 337 19.3 29.0 0.18 0.36 0.36 90 1008.4
20260507080307 12 348 14.5 25.7 0.20 0.36 0.36 90 1008.5
20260507073807 12 330 12.9 24.1 0.36 0.36 0.36 90 1008.3
20260507072806 12 346 11.3 19.3 0.36 0.36 0.36 90 1008.1
20260507072307 12 334 9.7 24.1 0.33 0.33 0.33 89 1008.8
20260507071807 13 350 14.5 20.9 0.30 0.30 0.30 89 1008.2
20260507071306 13 333 12.9 22.5 0.18 0.18 0.18 88 1008.2
20260507070306 13 331 16.1 25.7 0.15 0.15 0.15 88 1007.9
20260507064306 13 352 19.3 29.0 0.05 0.05 0.05 84 1007.7
20260507063807 14 344 20.9 32.2 0.00 0.00 0.00 83 1007.4
20260507063307 15 345 19.3 29.0 0.00 0.00 0.00 83 1007.6
20260507062806 15 359 17.7 29.0 0.00 0.00 0.00 83 1007.5
20260507061807 15 349 16.1 24.1 0.00 0.00 0.00 87 1007.3
20260507055807 15 275 4.8 19.3 0.00 0.00 0.00 93 1007.3
20260507055306 15 245 4.8 4.8 0.00 0.00 0.00 93 1007.1
20260507054306 15 240 3.2 11.3 0.00 0.00 0.00 93 1006.8
20260507053806 15 220 6.4 11.3 0.00 0.00 0.00 93 1007.2
20260507053306 15 236 8.0 9.7 0.00 0.00 0.00 93 1007.1
20260507052307 14 204 3.2 4.8 0.00 0.00 0.00 93 1007.1
20260507050806 15 219 3.2 4.8 0.00 0.00 0.00 93 1007.1
20260507045806 14 212 3.2 4.8 0.00 0.00 0.00 93 1007.3
20260507045307 13 207 3.2 4.8 0.00 0.00 0.00 93 1007.3
20260507044807 13 207 3.2 4.8 0.00 0.00 0.00 93 1007.3
20260507043807 13 194 8.0 16.1 0.00 0.00 0.00 92 1007.4
20260507041806 15 193 3.2 8.0 0.00 0.00 0.00 93 1007.6
20260507040307 15 203 6.4 12.9 0.00 0.00 0.00 93 1007.5
20260507035806 15 227 6.4 12.9 0.00 0.00 0.00 93 1007.4
20260507035306 15 235 6.4 14.5 0.00 0.00 0.00 93 1007.3
20260507034807 15 224 4.8 8.0 0.00 0.00 0.00 93 1007.3
20260507034306 14 228 3.2 8.0 0.00 0.00 0.00 93 1007.1
20260507033806 13 224 6.4 9.7 0.00 0.00 0.00 94 1007.1
20260507033306 13 238 4.8 9.7 0.00 0.00 0.00 93 1007.3
20260507032806 13 202 4.8 9.7 0.00 0.00 0.00 93 1007.2
20260507032307 12 200 6.4 9.7 0.00 0.00 0.00 93 1007.3
20260507025806 12 201 8.0 14.5 0.00 0.00 0.00 92 1007.7
20260507024806 12 196 6.4 14.5 0.00 0.00 0.00 92 1007.8
20260507023806 12 206 6.4 11.3 0.00 0.00 0.00 92 1008.2
20260507022806 12 190 9.7 19.3 0.00 0.00 0.00 91 1007.8
20260507021306 13 192 9.7 14.5 0.00 0.00 0.00 90 1008.0
20260507020806 14 186 4.8 9.7 0.00 0.00 0.00 90 1008.1
20260507020306 14 192 3.2 4.8 0.00 0.00 0.00 91 1008.2
20260507014806 13 188 4.8 4.8 0.00 0.00 0.00 91 1008.3